Regional Weather Roundup
Issued by NWS

Home | Current Version | Previous Version | Text Only | Print | Product List | Glossary Off
Versions: 1 2 3 4 5 6 7 8 9 10 11 12 13 14 15 16 17 18 19 20 21 22 23 24 25 26 27 28 29 30 31 32 33 34 35 36 37 38 39 40 41 42 43 44 45 46 47 48 49 50

000
ASUS43 KDTX 290910
RWRMI
MICHIGAN HOURLY REGIONAL WEATHER ROUNDUP
NATIONAL WEATHER SERVICE DETROIT/PONTIAC MI
500 AM EDT FRI MAY 29 2015

NOTE: "FAIR" INDICATES FEW OR NO CLOUDS BELOW 12,000 FEET WITH NO
SIGNIFICANT WEATHER AND/OR OBSTRUCTION TO VISIBILITY.

MIZ047>049-052>055-059>063-066>070-074>076-081>083-291000-
SOUTHEAST LOWER MICHIGAN

CITY           SKY/WX    TMP DP  RH WIND       PRES   REMARKS
ADRIAN         PTCLDY    60  55  83 CALM      30.16S
ALMA           MOCLDY    59  55  85 CALM      30.13F
ANN ARBOR      PTCLDY    62  53  72 CALM      30.16F
BAD AXE        CLEAR     58  49  73 S5        30.18S
CARO           PTCLDY    60  52  75 SE5       30.15F
DETROIT CITY   PTCLDY    61  52  72 E5        30.17F
DETROIT        MOCLDY    64  53  67 CALM      30.17S
FLINT          PTCLDY    62  50  64 S6        30.16S
GROSSE ILE     MOCLDY    64  57  77 CALM      30.15F
HILLSDALE      CLEAR     63  58  82 SE7       30.15F
HOWELL         PTCLDY    60  50  69 SE7       30.16S

CITY           SKY/WX    TMP DP  RH WIND       PRES   REMARKS
JACKSON        CLEAR     60  53  77 SE5       30.15F
LAMBERTVILLE   MOCLDY    61  55  82 SE3       30.16S
LANSING        MOCLDY    63  52  67 SE8       30.14F
LAPEER         FAIR      59  51  74 CALM      30.18S
MASON          PTCLDY    57  51  80 SE5       30.15S
MONROE         PTCLDY    64  59  82 E5        30.15S
MT. CLEMENS    PTCLDY    58  53  83 E5        30.16F
PONTIAC        PTCLDY    59  50  72 E3        30.17F
PORT HOPE        N/A     60  50  69 S3        30.15F
PORT HURON     CLEAR     54  50  87 CALM      30.19S
TRI CITIES     PTCLDY    63  51  65 SE7       30.15F
MIDLAND        FAIR      63  51  64 SE3       30.13F
TROY           PTCLDY    63  51  65 E3        30.19F
SAGINAW HB     PTCLDY    61  50  67 SE5       30.14F
$$
MIZ043>046-050>051-056>058-064>065-071>073-077>080-291000-
SOUTHWEST LOWER MICHIGAN

CITY           SKY/WX    TMP DP  RH WIND       PRES   REMARKS
BATTLE CREEK   CLEAR     64  55  72 SE5       30.13F
BENTON HARBOR  PTCLDY    64  58  80 SE7       30.09S
BIG RAPIDS     MOCLDY    59  55  87 CALM      30.11F
COLDWATER      CLEAR     61  55  81 SE6       30.13F
FREMONT        FAIR      64  55  71 SE5       30.08F
HOLLAND        MOCLDY    65  55  70 SE8       30.09F
GRAND RAPIDS   PTCLDY    64  54  69 S10       30.11F
IONIA          FAIR      62  53  73 SE7       30.12S
KALAMAZOO      PTCLDY    64  55  72 CALM      30.12F
LUDINGTON      CLOUDY    68  58  68 SE7       30.06F
MARSHALL       CLEAR     61  55  79 CALM      30.13F
MOUNT PLEASANT PTCLDY    59  55  85 CALM      30.12F
MUSKEGON       CLOUDY    66  55  67 SE13      30.07F
SOUTH HAVEN    MOCLDY    66  56  71 SE5       30.09S
$$
MIZ016>042-291000-
NORTHERN LOWER MICHIGAN

CITY           SKY/WX    TMP DP  RH WIND       PRES   REMARKS
ALPENA         PTCLDY    63  56  78 S9        30.14F
BEAVER ISLAND  PTCLDY    56  55  94 SE6       30.07F
BELLAIRE       MOCLDY    63  57  80 CALM      30.09F
CADILLAC       PTCLDY    64  54  70 S6        30.11F
CHARLEVOIX     MOCLDY    61  59  92 SE3       30.12S
FRANKFORT      CLOUDY    67  53  61 SE8       30.06F
GAYLORD        MOCLDY    62  58  86 S10       30.13F
GRAYLING       PTCLDY    54  52  93 CALM      30.14F
HARBOR SPRINGS MOCLDY    58  56  94 CALM      30.10S
HOUGHTON LAKE  PTCLDY    62  52  69 SE6       30.14F
MANISTEE       CLOUDY    57  54  88 E6        30.07F
OSCODA         PTCLDY    60  55  84 CALM      30.15S
PELLSTON       MOCLDY    56  54  93 CALM      30.10F
ROGERS CITY    PTCLDY    63  58  84 S9        30.13S
TRAVERSE CITY  MOCLDY    61  56  83 CALM      30.07F
$$
MIZ007>008-015-291000-
EASTERN UPPER MICHIGAN

CITY           SKY/WX    TMP DP  RH WIND       PRES   REMARKS
KINROSS        MOCLDY    52  50  93 SE6       30.10S
MACKINAC ISLAN PTCLDY    55  54  99 SE10      30.09F
NEWBERRY       MOCLDY    55  52  92 S9        30.06F
S. S. MARIE    MOCLDY    53  50  89 E5        30.10F
MUNISING         N/A     56  49  77 S7        30.02F
$$
MIZ004>006-011>014-085-291000-
CENTRAL UPPER MICHIGAN

CITY           SKY/WX    TMP DP  RH WIND       PRES   REMARKS
MANISTIQUE     PTCLDY    51  49  93 SE6       30.05F
ESCANABA       PTCLDY    52  46  82 CALM      30.02F
MENOMINEE      CLOUDY    63  54  72 S6        30.01F
SAWYER-GWINN   MOCLDY    56  51  84 S9        30.01F
$$
MIZ001>003-009>011-084-291000-
WESTERN UPPER MICHIGAN

CITY           SKY/WX    TMP DP  RH WIND       PRES   REMARKS
IRON MOUNTAIN  MOCLDY    59  54  83 SE5       29.99F
HOUGHTON       CLOUDY    58  54  86 S7        29.93F
COPPER HARBOR    N/A     60  54  80 SW8       29.92S
IRONWOOD       CLOUDY    64  54  68 S7        29.90S
$$

ABBREVIATIONS USED IN REMARKS
   TC - TEMPERATURE IN CELSIUS
  WCI - WIND CHILL INDEX
   HX - HEAT INDEX
  VSB - VISIBILITY



USA.gov is the U.S. government's official web portal to all federal, state and local government web resources and services.